VE3ZEB-1 Weather Reports


Display with metric or nautical units.
time (UTC)temp
F
wind
direction
speed
MPH
gust
MPH
rain 1hr
in
rain 24hr
in
rain mn
in
humidity
%
barometer
mb
20260508203024 65 229 3.0 5.0 0.00 0.00 0.00 31 679.9
20260508202024 65 207 2.0 3.0 0.00 0.00 0.00 28 679.9
20260508201024 64 224 4.0 7.0 0.00 0.00 0.00 29 679.9
20260508200045 64 331 3.0 7.0 0.00 0.00 0.00 27 679.9
20260508195024 64 208 4.0 6.0 0.00 0.00 0.00 29 679.9
20260508194025 64 317 3.0 6.0 0.00 0.00 0.00 29 679.9
20260508193105 64 322 3.0 6.0 0.00 0.00 0.00 29 679.9
20260508192025 63 350 2.0 4.0 0.00 0.00 0.00 27 679.9
20260508191025 64 323 3.0 7.0 0.00 0.00 0.00 29 679.9
20260508190025 63 312 1.0 3.0 0.00 0.00 0.00 30 679.9
20260508185025 62 280 4.0 10.0 0.00 0.00 0.00 30 679.8
20260508184025 63 252 3.0 7.0 0.00 0.00 0.00 30 679.8
20260508183046 63 345 2.0 4.0 0.00 0.00 0.00 27 679.8
20260508182026 63 303 2.0 5.0 0.00 0.00 0.00 30 679.8
20260508181026 63 253 4.0 9.0 0.00 0.00 0.00 29 679.9
20260508180026 64 313 3.0 6.0 0.00 0.00 0.00 30 679.9
20260508175026 64 234 2.0 4.0 0.00 0.00 0.00 30 679.9
20260508174026 64 303 4.0 7.0 0.00 0.00 0.00 27 679.9
20260508173026 65 332 3.0 5.0 0.00 0.00 0.00 29 679.9
20260508172027 66 322 4.0 6.0 0.00 0.00 0.00 30 679.9
20260508171027 67 352 4.0 7.0 0.00 0.00 0.00 27 679.9
20260508170027 67 325 4.0 8.0 0.00 0.00 0.00 29 679.9
20260508165047 68 247 3.0 6.0 0.00 0.00 0.00 31 679.9
20260508164027 68 264 3.0 7.0 0.00 0.00 0.00 31 679.9
20260508163027 68 268 2.0 4.0 0.00 0.00 0.00 33 679.9
20260508162028 68 284 2.0 4.0 0.00 0.00 0.00 33 679.9
20260508161027 68 315 3.0 6.0 0.00 0.00 0.00 36 679.9
20260508160028 68 219 4.0 7.0 0.00 0.00 0.00 33 679.9
20260508155028 67 339 3.0 6.0 0.00 0.00 0.00 33 679.9
20260508154028 66 318 2.0 4.0 0.00 0.00 0.00 34 679.9
20260508153028 66 348 3.0 6.0 0.00 0.00 0.00 35 679.9
20260508152028 65 314 2.0 4.0 0.00 0.00 0.00 36 679.8
20260508151028 65 316 2.0 4.0 0.00 0.00 0.00 40 679.8
20260508150028 63 271 2.0 6.0 0.00 0.00 0.00 41 679.8
20260508145028 62 246 2.0 4.0 0.00 0.00 0.00 42 679.8
20260508144029 60 351 3.0 5.0 0.00 0.00 0.00 44 679.7
20260508143029 59 221 5.0 7.0 0.00 0.00 0.00 49 679.6
20260508142029 58 324 2.0 6.0 0.00 0.00 0.00 52 679.6
20260508141029 56 303 1.0 3.0 0.00 0.00 0.00 54 679.6
20260508140029 54 260 2.0 5.0 0.00 0.00 0.00 58 679.5
20260508135110 53 300 1.0 4.0 0.00 0.00 0.00 58 679.5
20260508134029 52 298 1.0 2.0 0.00 0.00 0.00 60 679.5
20260508133030 52 338 3.0 6.0 0.00 0.00 0.00 62 679.5
20260508132029 51 307 1.0 3.0 0.00 0.00 0.00 64 679.5
20260508131030 50 324 2.0 4.0 0.00 0.00 0.00 64 679.5
20260508130051 50 281 2.0 3.0 0.00 0.00 0.00 68 679.4
20260508125030 49 327 2.0 4.0 0.00 0.00 0.00 70 679.4
20260508124015 48 302 1.0 3.0 0.00 0.00 0.00 71 679.4
20260508123030 47 292 1.0 2.0 0.00 0.00 0.00 73 679.4
20260508122051 46 251 1.0 4.0 0.00 0.00 0.00 75 679.4
20260508121031 45 294 1.0 3.0 0.00 0.00 0.00 77 679.3
20260508120031 43 327 1.0 3.0 0.00 0.00 0.00 77 679.3
20260508115031 41 246 2.0 3.0 0.00 0.00 0.00 77 679.2
20260508114031 40 263 1.0 3.0 0.00 0.00 0.00 77 679.2
20260508113031 40 249 2.0 3.0 0.00 0.00 0.00 77 679.2
20260508112017 39 237 2.0 3.0 0.00 0.00 0.00 77 679.2
20260508111131 38 260 1.0 1.0 0.00 0.00 0.00 77 679.2
20260508110017 38 308 1.0 2.0 0.00 0.00 0.00 77 679.2
20260508105032 38 259 2.0 2.0 0.00 0.00 0.00 77 679.2
20260508104032 38 287 1.0 1.0 0.00 0.00 0.00 77 679.2
20260508103032 38 278 1.0 1.0 0.00 0.00 0.00 77 679.2
20260508102032 38 277 1.0 1.0 0.00 0.00 0.00 77 679.2
20260508101033 39 297 1.0 1.0 0.00 0.00 0.00 77 679.2
20260508100033 39 281 1.0 1.0 0.00 0.00 0.00 77 679.2
20260508095033 40 294 1.0 1.0 0.00 0.00 0.00 77 679.2
20260508094033 40 288 1.0 2.0 0.00 0.00 0.00 77 679.2
20260508093038 40 265 1.0 1.0 0.00 0.00 0.00 77 679.2
20260508092018 40 242 1.0 2.0 0.00 0.00 0.00 77 679.3
20260508091018 40 236 1.0 2.0 0.00 0.00 0.00 77 679.2
20260508090018 41 242 1.0 2.0 0.00 0.00 0.00 77 679.2
20260508085019 41 242 1.0 1.0 0.00 0.00 0.00 77 679.2
20260508084038 41 203 2.0 2.0 0.00 0.00 0.00 77 679.2
20260508083019 41 231 1.0 2.0 0.00 0.00 0.00 77 679.3
20260508082018 41 0.0 0.0 0.00 0.00 0.00 77 679.3
20260508081019 41 174 2.0 3.0 0.00 0.00 0.00 77 679.3
20260508080019 41 0.0 0.0 0.00 0.00 0.00 76 679.3
20260508075020 41 3 0.0 1.0 0.00 0.00 0.00 76 679.3
20260508074020 41 220 1.0 2.0 0.00 0.00 0.00 75 679.3
20260508073039 41 265 0.0 1.0 0.00 0.00 0.00 74 679.3
20260508072019 41 336 0.0 1.0 0.00 0.00 0.00 74 679.3
20260508071019 41 0.0 0.0 0.00 0.00 0.00 74 679.3
20260508070020 42 0.0 0.0 0.00 0.00 0.00 73 679.3
20260508065020 42 332 0.0 1.0 0.00 0.00 0.00 74 679.3
20260508064020 42 0 0.0 0.0 0.00 0.00 0.00 73 679.3
20260508063020 42 0.0 0.0 0.00 0.00 0.00 73 679.3
20260508062020 42 351 1.0 2.0 0.00 0.00 0.00 72 679.3
20260508061100 41 339 0.0 1.0 0.00 0.00 0.00 70 679.3
20260508060020 42 335 0.0 1.0 0.00 0.00 0.00 70 679.3
20260508055020 42 0.0 0.0 0.00 0.00 0.00 70 679.3
20260508054021 42 0 0.0 0.0 0.00 0.00 0.00 70 679.3
20260508053020 42 162 2.0 3.0 0.00 0.00 0.00 71 679.3
20260508052102 42 0.0 0.0 0.00 0.00 0.00 70 679.3
20260508051021 42 237 0.0 1.0 0.00 0.00 0.00 72 679.3
20260508050021 42 225 2.0 2.0 0.00 0.00 0.00 72 679.3
20260508044022 42 160 0.0 2.0 0.00 0.00 0.00 70 679.3
20260508043022 42 148 0.0 1.0 0.00 0.00 0.00 66 679.3
20260508042022 42 0 0.0 0.0 0.00 0.00 0.00 70 679.3
20260508041042 42 270 0.0 1.0 0.00 0.00 0.00 69 679.3
20260508040022 41 354 2.0 4.0 0.00 0.00 0.00 70 679.3
20260508035023 41 265 1.0 2.0 0.00 0.00 0.00 69 679.3
20260508034023 41 278 1.0 1.0 0.00 0.00 0.00 70 679.3
20260508033023 41 272 0.0 1.0 0.00 0.00 0.00 70 679.3
20260508032023 41 231 1.0 2.0 0.00 0.00 0.00 70 679.3
20260508031043 41 210 0.0 1.0 0.00 0.00 0.00 70 679.3
20260508030023 41 0.0 0.0 0.00 0.00 0.00 68 679.3
20260508025043 41 226 1.0 1.0 0.00 0.00 0.00 68 679.3
20260508024023 41 0.0 0.0 0.00 0.00 0.00 67 679.3
20260508023023 41 0.0 0.0 0.00 0.00 0.00 67 679.3
20260508022023 42 0.0 0.0 0.00 0.00 0.00 66 679.3
20260508021023 42 0.0 0.0 0.00 0.00 0.00 66 679.3
20260508020023 42 0.0 0.0 0.00 0.00 0.00 66 679.3
20260508015024 42 0.0 0.0 0.00 0.00 0.00 64 679.3
20260508014024 43 268 1.0 1.0 0.00 0.00 0.00 63 679.3
20260508013024 43 0 0.0 0.0 0.00 0.00 0.00 63 679.4
20260508012024 44 0.0 0.0 0.00 0.00 0.00 62 679.4
20260508011024 45 296 0.0 1.0 0.00 0.00 0.00 61 679.4
20260508010024 45 0.0 0.0 0.00 0.00 0.00 60 679.4
20260508005025 46 0.0 0.0 0.00 0.00 0.00 60 679.4
20260508004025 46 0.0 0.0 0.00 0.00 0.00 58 679.4
20260508003025 47 360 1.0 2.0 0.00 0.00 0.00 56 679.5
20260508002045 48 330 1.0 2.0 0.00 0.00 0.00 56 679.5
20260508001025 48 335 0.0 2.0 0.00 0.00 0.00 56 679.5
20260508000025 49 345 1.0 3.0 0.00 0.00 0.00 55 679.5
20260507235025 49 354 2.0 4.0 0.00 0.00 0.00 53 679.5
20260507234026 50 340 1.0 4.0 0.00 0.00 0.00 53 679.5
20260507233046 51 341 2.0 4.0 0.00 0.00 0.00 52 679.5
20260507232026 51 352 2.0 3.0 0.00 0.00 0.00 52 679.5
20260507231026 51 320 3.0 5.0 0.00 0.00 0.00 51 679.5
20260507230026 52 344 2.0 4.0 0.00 0.00 0.00 51 679.5
20260507225026 52 327 4.0 9.0 0.00 0.00 0.00 51 679.5
20260507224027 52 334 3.0 6.0 0.00 0.00 0.00 51 679.5
20260507223027 53 335 4.0 7.0 0.00 0.00 0.00 51 679.6
20260507222047 53 336 3.0 5.0 0.00 0.00 0.00 52 679.6
20260507221027 52 334 2.0 6.0 0.00 0.00 0.00 53 679.5
20260507220027 52 310 2.0 4.0 0.00 0.00 0.00 52 679.6
20260507215047 52 330 3.0 5.0 0.00 0.00 0.00 55 679.5
20260507214027 50 333 2.0 5.0 0.00 0.00 0.00 57 679.5
20260507213027 50 323 3.0 7.0 0.00 0.00 0.00 59 679.5
20260507212027 49 333 3.0 5.0 0.00 0.00 0.00 60 679.5
20260507211028 49 343 4.0 8.0 0.00 0.00 0.00 58 679.5
20260507210028 50 334 4.0 9.0 0.00 0.00 0.00 56 679.5
20260507205028 50 332 4.0 6.0 0.00 0.00 0.00 56 679.5
20260507204028 51 323 3.0 6.0 0.00 0.00 0.00 55 679.5